Wind_Speed
22 22 22 21 21 20 19 18 17 17 16 17 17 17 17 16 16 15 14 14 14 14 14 14 14 14 14 15 16 16 16 16 16 15 15 15 15 15 14 14 14 13 13 13 12 13 13 12 12
23 23 23 23 23 22 21 19 18 17 17 17 17 17 17 16 16 16 15 15 15 15 15 15 15 16 16 16 17 17 18 18 18 18 18 18 18 17 17 16 16 15 15 14 14 14 14 15 15
24 24 24 24 24 23 21 19 19 18 18 18 18 18 17 17 17 16 16 16 16 16 16 16 17 17 18 18 18 19 19 19 20 20 20 20 20 20 19 18 18 17 17 17 17 17 17 17 17
24 25 25 25 24 23 21 21 20 20 19 18 18 19 18 18 17 16 16 16 16 17 17 17 17 18 18 19 19 20 21 21 21 21 21 21 21 21 21 20 20 20 20 20 20 19 19 19 19
25 25 25 25 24 23 22 22 22 21 20 19 19 19 19 19 18 17 17 17 17 18 18 18 18 19 19 19 20 21 22 22 22 23 23 23 22 22 22 22 22 22 23 23 22 22 21 21 21
25 25 25 25 25 24 23 23 23 23 22 21 21 21 20 20 19 19 18 19 19 19 20 20 20 20 21 21 21 22 22 23 23 24 24 24 24 24 24 24 24 24 24 24 24 24 24 23 23
25 25 25 25 25 24 24 25 25 24 23 22 22 21 21 21 21 21 20 20 20 20 21 21 22 22 23 23 22 23 23 24 24 25 25 25 25 25 25 25 25 25 25 25 25 25 25 25 25
25 26 26 25 24 24 25 26 26 25 25 24 23 22 22 22 23 22 22 22 22 22 22 23 23 24 24 24 24 24 25 25 25 26 26 26 26 26 27 27 27 27 27 26 26 26 27 27 27
26 26 25 25 25 25 26 27 27 26 25 25 24 24 24 24 24 24 24 24 24 24 24 24 24 25 25 26 26 26 27 27 27 27 27 27 28 28 28 28 28 28 29 29 28 28 28 29 28
27 26 25 25 26 26 26 27 27 26 26 26 26 26 26 26 26 26 26 26 26 26 26 26 26 26 26 26 27 27 28 28 28 28 29 29 29 30 30 30 30 30 30 30 30 30 30 30 30
27 26 26 26 26 26 27 27 27 27 26 27 27 27 28 28 27 27 28 28 27 27 27 27 27 27 27 27 28 28 29 30 30 30 30 30 30 31 31 31 32 32 32 32 32 32 32 32 32
28 27 27 27 27 27 27 27 27 27 27 28 28 28 28 28 28 28 28 29 28 28 28 28 28 29 29 29 29 30 30 31 31 32 32 32 32 33 33 33 33 34 34 34 34 34 34 34 34
30 29 29 28 28 28 28 28 27 26 27 28 29 29 29 29 29 29 29 30 29 29 29 30 30 30 31 31 31 31 31 32 33 34 34 35 34 34 34 35 35 35 36 36 37 37 36 37 37
31 30 30 30 30 29 30 29 28 27 29 30 29 29 30 30 30 30 30 30 31 31 32 32 32 32 32 32 33 33 33 34 34 35 36 36 37 37 37 37 37 38 38 38 39 39 39 39 39
32 31 30 31 32 32 32 30 29 29 31 31 31 31 31 31 32 32 32 32 33 33 33 33 33 33 34 34 34 35 35 35 36 37 37 38 38 39 39 39 39 39 40 40 41 41 41 41 41
33 33 32 31 33 33 33 31 30 31 31 31 31 31 32 32 32 33 34 35 35 35 35 34 35 35 36 36 36 36 37 37 37 39 39 39 40 41 41 42 41 41 41 42 43 43 43 44 43
35 34 33 32 33 34 34 32 31 32 32 32 32 32 32 33 33 34 35 36 37 37 36 36 37 37 37 38 38 38 37 38 39 40 41 41 42 42 43 43 43 43 43 44 44 45 45 45 45
35 34 34 34 34 35 35 33 33 33 33 33 33 33 34 34 35 35 36 37 38 38 38 38 38 38 38 39 39 39 39 39 40 42 43 43 43 44 44 45 45 45 45 45 46 46 46 47 47
36 35 35 35 36 37 36 35 34 35 35 35 35 35 35 36 36 37 37 37 38 39 39 39 39 39 39 39 40 40 40 40 41 42 43 44 44 45 46 46 47 47 47 47 47 48 48 48 49
36 36 35 36 37 39 39 38 36 36 36 36 36 36 36 37 38 38 38 38 38 38 39 39 39 40 40 41 40 41 41 41 41 42 43 44 45 46 47 48 48 48 49 50 50 50 50 50 51
37 37 36 37 39 40 41 40 38 37 37 37 37 37 37 37 38 38 38 37 38 38 39 39 40 40 40 41 41 41 42 42 42 43 44 44 45 47 48 49 49 49 50 50 50 51 52 52 53
38 38 38 39 41 41 42 43 39 38 38 37 37 37 37 37 38 38 38 38 38 38 39 40 40 40 40 41 42 42 43 43 43 43 44 45 46 48 49 50 50 50 50 51 52 52 53 54 54
38 38 40 41 42 43 42 44 39 38 38 37 37 36 36 36 37 37 38 38 38 39 40 40 40 41 41 42 42 43 43 44 44 43 44 45 46 47 48 49 50 50 51 51 53 54 55 55 55
37 38 40 41 42 44 41 43 41 37 36 36 37 37 37 37 38 37 38 39 39 39 39 39 40 41 42 42 42 43 43 43 44 44 45 46 47 48 49 50 50 51 51 52 53 55 55 56 56
38 38 39 41 42 43 40 43 42 38 37 36 37 37 37 38 38 38 38 38 38 38 39 39 40 41 42 42 42 43 44 44 45 45 46 47 47 47 49 50 51 52 52 52 53 54 55 56 56
37 37 39 40 41 41 41 43 41 39 38 37 37 37 37 37 37 38 38 38 37 38 39 40 41 41 42 43 43 44 45 46 46 46 47 47 48 48 50 51 51 51 52 53 53 54 55 55 54
37 38 38 40 42 42 42 42 40 37 37 36 37 37 37 37 37 38 38 38 38 39 40 41 41 41 42 43 43 44 46 47 47 47 48 49 49 51 51 52 52 52 53 53 53 53 54 54 54
38 37 38 40 41 42 43 42 39 36 36 36 36 36 36 37 37 38 38 39 39 40 41 41 41 42 43 44 44 45 46 47 47 48 49 50 50 51 51 51 52 52 53 53 53 52 53 53 54
37 38 39 40 42 42 43 41 38 37 36 36 36 36 36 36 38 38 39 40 40 41 41 41 42 42 43 44 46 46 46 46 48 49 49 50 50 50 50 50 51 52 52 52 53 52 53 53 53
39 39 39 40 41 42 42 42 37 36 36 37 37 36 36 37 37 38 39 40 40 40 41 42 42 43 44 45 46 46 47 47 48 49 49 49 50 50 50 50 50 50 50 50 51 51 51 52 52
Wind_Direction
237 236 236 235 235 235 236 236 237 237 238 239 240 242 244 245 247 249 250 252 253 252 253 254 256 257 257 256 256 256 257 257 258 261 265 267 270 272 273 275 276 278 277 275 273 274 276 278 279
237 237 236 236 236 236 236 238 238 237 237 238 240 242 243 245 246 248 249 251 253 254 255 256 258 260 260 258 257 256 257 258 259 261 263 266 268 270 272 274 274 275 274 274 273 273 274 275 276
238 236 237 237 236 236 236 236 238 237 238 239 241 243 244 245 247 248 249 251 254 257 258 258 260 261 262 260 258 257 258 259 261 262 263 265 268 269 270 271 272 272 273 274 274 273 273 274 275
238 237 237 237 236 236 236 236 237 238 238 240 243 246 247 248 250 251 251 251 254 257 260 260 261 262 263 263 261 259 259 260 261 262 264 266 267 268 268 268 270 271 272 274 274 273 272 273 273
239 238 238 238 237 235 235 235 237 238 239 240 241 244 247 249 251 252 252 253 254 256 258 259 261 264 265 264 262 261 261 261 261 263 264 265 266 267 267 268 269 270 271 273 273 272 271 271 272
240 239 239 239 238 236 236 238 239 241 242 242 243 245 247 250 252 253 254 255 257 259 261 263 264 265 267 267 265 262 261 262 263 263 264 265 265 266 267 268 269 270 272 273 272 272 270 270 271
241 240 241 241 240 238 239 241 242 243 244 244 244 246 248 250 252 253 255 257 260 263 264 265 266 267 267 267 266 264 263 264 265 265 265 264 264 265 266 268 269 270 271 272 271 271 271 271 271
242 243 243 243 242 241 241 242 242 243 245 246 246 246 248 250 251 253 256 258 261 264 265 267 268 268 268 267 267 267 266 266 266 266 265 264 265 266 266 267 268 269 270 271 271 271 272 272 272
242 243 244 243 243 242 241 243 243 245 246 247 247 248 250 251 253 255 257 258 260 263 265 267 268 268 267 267 267 267 267 267 267 266 266 266 266 267 267 267 267 268 268 269 270 270 272 272 272
242 243 243 243 243 243 243 244 245 246 247 249 249 250 252 254 255 257 258 259 260 262 264 266 268 268 268 268 268 268 267 267 267 267 266 267 267 268 267 267 267 267 268 269 270 270 271 272 272
242 242 242 243 244 244 245 246 246 247 248 250 252 253 254 256 257 258 259 259 260 262 264 266 266 268 269 269 269 268 268 267 267 266 266 267 268 268 268 267 268 268 269 270 270 270 270 271 273
241 241 243 244 245 245 245 247 248 249 251 252 253 254 257 258 259 259 259 260 260 261 264 265 266 267 268 269 269 270 269 267 266 266 267 267 268 268 268 267 268 268 269 269 269 270 270 271 271
242 242 243 245 246 246 247 248 249 251 251 253 255 256 257 259 260 260 260 261 261 262 265 266 266 267 268 269 270 270 269 268 267 266 267 267 268 268 268 268 268 268 269 269 269 270 270 270 271
242 244 245 246 248 249 250 249 251 252 253 255 256 258 258 260 261 261 261 262 262 264 266 266 267 268 268 269 270 270 270 268 267 266 267 267 268 267 268 268 268 268 269 269 269 269 269 270 271
242 244 246 247 248 250 252 251 252 252 254 257 259 260 260 260 261 262 263 263 263 265 267 267 267 268 269 270 270 271 270 268 267 266 267 268 268 268 267 268 268 268 269 269 270 270 270 270 271
243 244 246 247 249 250 252 253 252 253 256 258 259 261 261 262 262 263 263 264 264 265 267 267 268 269 270 271 271 272 271 268 267 267 267 268 267 268 267 268 268 268 268 269 269 270 270 271 271
243 245 248 249 250 251 253 253 254 256 258 259 260 261 262 263 265 265 265 265 265 266 267 267 268 270 271 271 272 272 272 270 269 268 268 268 268 267 267 267 268 268 268 269 269 269 270 270 270
246 248 249 251 251 252 253 254 255 257 258 259 260 261 262 264 266 267 267 267 267 268 268 268 269 270 271 272 273 273 273 273 272 270 269 269 269 268 266 267 268 268 268 269 270 269 269 270 270
247 249 250 251 252 253 253 254 255 258 259 260 261 263 264 265 266 267 268 269 268 268 269 269 270 271 271 273 274 274 273 274 274 272 270 270 270 268 267 267 267 268 269 269 269 269 270 270 270
248 249 251 252 253 254 255 255 256 258 260 261 263 264 265 267 267 268 268 269 270 269 269 269 270 271 272 273 275 275 274 274 275 273 271 271 270 269 268 267 268 269 270 270 269 270 270 270 271
250 251 252 254 254 256 257 256 256 257 260 262 264 265 266 268 268 268 268 269 271 271 270 269 270 272 273 274 275 276 276 276 276 274 273 272 271 269 269 268 269 269 270 270 270 271 272 272 272
251 252 253 255 256 257 259 260 257 258 260 262 264 266 267 268 268 269 269 269 270 271 270 270 271 272 273 274 275 275 276 277 277 275 274 274 273 271 270 269 268 269 271 271 272 272 272 272 272
252 253 254 255 257 258 258 261 260 261 262 263 265 266 267 267 268 269 268 268 270 271 270 269 271 271 272 273 274 275 276 277 278 276 275 275 275 273 272 271 270 271 272 273 274 274 273 272 272
251 252 254 255 257 258 259 262 262 262 265 265 265 266 267 267 268 269 268 269 270 271 271 271 270 271 272 273 274 275 276 277 277 276 276 276 276 276 275 274 273 273 274 274 275 274 275 274 273
251 252 254 256 258 261 261 262 263 265 266 266 266 267 268 268 268 269 269 270 271 271 272 271 270 271 273 274 275 275 276 278 278 277 277 277 277 277 277 276 275 275 275 275 276 276 276 274 274
251 252 254 256 259 262 261 262 265 266 266 267 267 267 267 268 268 269 269 270 272 272 272 271 272 272 274 275 276 277 277 278 279 278 278 279 279 279 278 277 277 276 276 276 277 278 277 275 275
250 251 253 255 259 261 262 264 266 266 266 266 267 268 268 269 269 269 269 270 272 273 273 274 274 274 274 276 277 278 279 279 279 279 279 280 280 279 279 278 277 277 276 277 278 278 278 276 275
250 252 253 254 258 262 263 264 267 267 268 268 268 269 269 269 269 269 270 272 273 274 275 276 275 276 277 277 278 280 280 280 280 280 280 281 281 281 280 280 278 278 277 276 277 277 277 277 276
249 250 252 255 258 261 265 267 268 269 270 269 269 270 271 270 269 270 272 273 274 275 276 277 277 278 279 279 280 281 281 282 281 281 281 281 281 281 281 281 280 279 277 277 277 277 278 278 277
250 250 251 253 256 260 264 267 268 269 269 269 269 270 270 270 271 271 272 274 275 276 276 277 278 279 280 280 280 281 281 281 281 281 281 281 281 281 281 282 281 280 278 278 278 278 279 279 278
Height
5834 5835 5837 5839 5841 5842 5843 5845 5846 5847 5848 5849 5850 5851 5852 5854 5855 5858 5857 5857 5857 5858 5859 5859 5860 5860 5860 5861 5861 5862 5862 5863 5864 5864 5864 5864 5865 5865 5865 5865 5865 5864 5864 5864 5864 5864 5863 5863 5863
5830 5832 5834 5835 5837 5838 5841 5842 5843 5844 5845 5846 5847 5848 5849 5850 5851 5852 5853 5854 5854 5855 5856 5857 5857 5857 5858 5858 5859 5859 5860 5860 5861 5861 5862 5862 5862 5862 5863 5862 5862 5862 5862 5862 5861 5861 5861 5861 5860
5825 5827 5830 5831 5832 5835 5837 5838 5839 5840 5841 5843 5843 5844 5846 5847 5848 5849 5850 5851 5851 5852 5853 5853 5854 5854 5854 5855 5855 5856 5857 5857 5858 5858 5858 5859 5859 5859 5859 5859 5859 5859 5859 5859 5859 5858 5858 5858 5857
5821 5823 5825 5827 5828 5831 5833 5834 5835 5836 5838 5839 5840 5841 5842 5843 5844 5846 5847 5848 5848 5849 5849 5850 5850 5850 5851 5851 5852 5852 5853 5853 5854 5854 5855 5855 5855 5856 5856 5856 5856 5856 5856 5856 5855 5855 5854 5854 5854
5817 5818 5820 5822 5824 5827 5828 5830 5831 5832 5834 5835 5836 5837 5838 5840 5840 5842 5843 5844 5844 5845 5845 5846 5846 5847 5847 5847 5848 5848 5849 5849 5850 5850 5851 5851 5852 5852 5852 5852 5852 5852 5852 5852 5851 5851 5851 5850 5850
5812 5814 5816 5817 5820 5822 5824 5825 5826 5828 5830 5831 5832 5833 5835 5836 5836 5838 5839 5840 5840 5841 5842 5842 5842 5842 5843 5843 5844 5844 5845 5845 5845 5846 5846 5847 5847 5847 5847 5848 5848 5848 5847 5847 5847 5847 5846 5846 5845
5808 5809 5810 5813 5815 5818 5820 5820 5822 5823 5825 5827 5828 5829 5830 5831 5832 5833 5834 5835 5836 5837 5837 5837 5837 5838 5838 5839 5839 5839 5840 5840 5841 5841 5841 5842 5842 5842 5843 5843 5843 5843 5843 5842 5842 5842 5841 5841 5841
5802 5804 5805 5808 5810 5813 5814 5815 5816 5818 5820 5822 5823 5825 5826 5827 5828 5829 5830 5831 5831 5832 5832 5833 5833 5833 5833 5833 5834 5834 5835 5835 5835 5836 5836 5836 5837 5837 5838 5838 5838 5838 5837 5837 5837 5837 5836 5836 5836
5796 5799 5800 5803 5805 5807 5808 5809 5811 5813 5815 5816 5818 5819 5821 5821 5823 5824 5825 5826 5826 5827 5827 5828 5828 5828 5828 5828 5828 5829 5829 5829 5830 5830 5830 5831 5831 5832 5832 5832 5832 5832 5832 5832 5831 5831 5831 5830 5830
5790 5793 5796 5798 5800 5802 5803 5804 5806 5808 5809 5811 5812 5813 5814 5816 5817 5818 5819 5820 5821 5821 5822 5822 5822 5822 5822 5822 5822 5823 5823 5823 5824 5824 5824 5825 5825 5825 5826 5826 5826 5826 5826 5825 5825 5825 5825 5824 5824
5784 5788 5790 5792 5794 5796 5797 5799 5800 5802 5804 5805 5807 5807 5808 5810 5811 5812 5813 5814 5815 5816 5816 5816 5816 5816 5817 5817 5817 5817 5817 5817 5817 5817 5818 5818 5818 5819 5819 5819 5819 5819 5819 5819 5819 5819 5819 5818 5818
5779 5782 5784 5786 5788 5790 5791 5793 5795 5796 5798 5799 5800 5801 5802 5803 5805 5806 5807 5808 5809 5810 5810 5810 5810 5810 5810 5810 5810 5810 5810 5810 5810 5810 5810 5811 5811 5811 5812 5812 5812 5812 5812 5812 5812 5812 5812 5811 5811
5773 5776 5778 5780 5781 5783 5785 5787 5788 5790 5791 5792 5793 5795 5796 5796 5798 5799 5799 5800 5801 5802 5803 5803 5803 5803 5803 5803 5803 5803 5802 5802 5802 5802 5803 5803 5803 5804 5804 5804 5804 5804 5804 5804 5804 5804 5804 5804 5803
5767 5769 5771 5773 5775 5776 5778 5780 5782 5784 5784 5785 5787 5788 5789 5790 5790 5791 5792 5793 5794 5794 5795 5795 5795 5795 5795 5795 5795 5795 5794 5794 5794 5794 5794 5794 5795 5795 5795 5796 5796 5796 5796 5796 5796 5796 5795 5795 5795
5759 5762 5765 5767 5768 5769 5771 5774 5776 5777 5777 5778 5780 5781 5782 5782 5783 5784 5785 5785 5786 5786 5787 5787 5787 5787 5787 5786 5786 5786 5785 5785 5785 5785 5785 5785 5785 5786 5786 5786 5787 5787 5787 5787 5786 5786 5786 5786 5786
5752 5754 5757 5760 5761 5763 5765 5767 5769 5769 5770 5771 5772 5773 5774 5775 5776 5776 5776 5777 5777 5778 5778 5778 5778 5778 5778 5777 5777 5776 5776 5775 5775 5775 5775 5775 5775 5776 5776 5776 5777 5777 5777 5777 5777 5776 5776 5776 5776
5744 5746 5750 5752 5754 5755 5756 5760 5762 5761 5762 5764 5765 5765 5766 5767 5767 5767 5767 5767 5768 5768 5768 5768 5768 5768 5768 5768 5767 5766 5766 5765 5765 5765 5764 5764 5765 5765 5765 5765 5766 5767 5767 5767 5766 5766 5766 5765 5765
5738 5740 5742 5744 5746 5747 5748 5751 5753 5753 5754 5755 5756 5757 5758 5758 5759 5758 5758 5758 5758 5758 5758 5759 5758 5758 5758 5757 5757 5756 5755 5755 5754 5753 5753 5753 5753 5753 5754 5754 5755 5755 5755 5755 5755 5755 5754 5754 5754
5729 5731 5734 5736 5737 5738 5740 5742 5744 5745 5746 5747 5748 5748 5749 5749 5749 5749 5749 5748 5748 5748 5748 5748 5748 5748 5747 5747 5746 5746 5745 5744 5743 5742 5741 5741 5741 5741 5742 5743 5743 5744 5744 5744 5744 5743 5743 5742 5741
5720 5722 5725 5727 5728 5729 5731 5733 5736 5736 5737 5738 5739 5740 5740 5740 5739 5739 5739 5738 5738 5737 5737 5737 5737 5737 5737 5737 5736 5735 5734 5733 5732 5730 5729 5729 5729 5729 5730 5730 5731 5732 5732 5732 5731 5731 5730 5730 5728
5711 5714 5716 5718 5719 5719 5721 5724 5727 5728 5728 5729 5730 5730 5730 5730 5730 5729 5729 5728 5727 5727 5726 5726 5726 5727 5726 5726 5725 5724 5722 5721 5720 5719 5718 5718 5717 5717 5718 5718 5718 5718 5718 5718 5718 5717 5717 5716 5715
5703 5706 5707 5708 5708 5710 5712 5711 5718 5719 5719 5719 5720 5720 5720 5720 5719 5719 5718 5718 5717 5717 5716 5716 5716 5716 5716 5715 5714 5713 5712 5710 5709 5708 5707 5706 5705 5705 5705 5705 5705 5705 5704 5704 5704 5703 5702 5701 5701
5694 5696 5697 5698 5698 5700 5701 5701 5707 5708 5709 5710 5710 5710 5710 5710 5709 5709 5708 5708 5707 5707 5706 5706 5706 5706 5705 5704 5703 5702 5701 5699 5698 5696 5696 5695 5694 5693 5693 5692 5692 5691 5691 5690 5689 5688 5687 5685 5685
5684 5686 5687 5687 5688 5689 5692 5691 5694 5698 5699 5700 5700 5700 5699 5699 5699 5699 5698 5698 5697 5697 5696 5696 5695 5695 5695 5694 5693 5692 5690 5689 5687 5685 5685 5684 5682 5681 5680 5679 5679 5678 5677 5676 5675 5674 5672 5671 5670
5674 5676 5677 5676 5677 5679 5682 5681 5684 5688 5689 5689 5689 5689 5688 5688 5688 5688 5688 5688 5687 5686 5686 5685 5685 5684 5684 5683 5682 5681 5679 5678 5676 5675 5673 5672 5670 5669 5668 5667 5666 5665 5663 5662 5660 5659 5657 5656 5655
5665 5667 5668 5668 5668 5670 5671 5671 5676 5678 5678 5678 5678 5678 5678 5678 5678 5678 5678 5678 5677 5676 5675 5674 5674 5674 5673 5672 5671 5669 5668 5666 5665 5663 5661 5660 5658 5657 5655 5653 5652 5650 5649 5647 5645 5643 5642 5640 5639
5655 5656 5658 5658 5658 5658 5660 5662 5666 5668 5668 5668 5668 5668 5668 5668 5668 5668 5668 5668 5667 5666 5665 5664 5664 5663 5662 5661 5659 5658 5656 5654 5653 5651 5649 5647 5645 5643 5641 5639 5638 5636 5634 5632 5630 5629 5627 5625 5624
5645 5647 5648 5648 5648 5648 5650 5653 5657 5658 5658 5658 5658 5658 5658 5658 5658 5658 5658 5658 5657 5655 5654 5654 5653 5652 5651 5650 5648 5646 5644 5643 5641 5639 5637 5635 5632 5630 5627 5625 5623 5621 5620 5617 5615 5614 5612 5610 5609
5635 5637 5638 5638 5639 5639 5640 5646 5647 5648 5648 5648 5648 5648 5648 5648 5648 5648 5648 5647 5646 5644 5643 5643 5642 5641 5640 5638 5636 5634 5633 5631 5629 5626 5624 5621 5619 5616 5614 5611 5609 5607 5605 5603 5601 5599 5597 5596 5595
5624 5627 5628 5630 5630 5630 5631 5637 5638 5638 5638 5638 5638 5638 5637 5637 5637 5637 5637 5636 5635 5634 5633 5632 5631 5630 5628 5626 5624 5622 5620 5618 5616 5614 5611 5608 5605 5603 5600 5598 5595 5593 5591 5589 5587 5585 5583 5582 5580